Weather History for Dayton Wright, OH

Change the Weather History Date:

Wednesday, March 12, 2014

  Actual Average (KFFO) Record (KFFO)
Temperature  
Mean Temperature 37 °F -  
Max Temperature 34 °F 45 °F 66 °F (2006)
Min Temperature 21 °F 25 °F 6 °F (1999)
Degree Days  
Heating Degree Days 28    
Moisture  
Dew Point 33 °F    
Average Humidity 88    
Maximum Humidity 100    
Minimum Humidity 71    
Precipitation  
Precipitation 1.00 in - - ()
Sea Level Pressure  
Sea Level Pressure 29.61 in    
Wind  
Wind Speed 13 mph (North)    
Max Wind Speed 26 mph    
Max Gust Speed 39 mph    
Visibility 3 miles    
Events Fog , Rain , Snow    
Averages and records for this station are not official NWS values.
T = Trace of Precipitation, MM = Missing Value Source: NWS Daily Summary

Daily Weather History Graph

Daily Weather History Graph

Search for Another Location

Airport:

Trip Planner

Search our weather history database for the weather conditions in past years. The results will help you decide how hot, cold, wet, or windy it might be!

Date:

Astronomy

Mar. 12, 2014 Rise Set
Actual Time 7:53 AM EDT 7:40 PM EDT
Civil Twilight 7:26 AM EDT 8:07 PM EDT
Nautical Twilight 6:55 AM EDT 8:38 PM EDT
Astronomical Twilight 6:23 AM EDT 9:10 PM EDT
Moon 4:11 PM EDT (3/12) 5:23 AM EDT (3/12)
Length of Visible Light 12h 41m
Length of Day
11h 47m
Waxing Gibbous, 85% of the Moon is Illuminated
Mar 12
Waxing Gibbous
Mar 16
Full
Mar 23
Last Quarter
Mar 30
New
Apr 7
First Quarter

Hourly Weather History & Observations

Time (EDT) Temp. Windchill Dew Point Humidity Pressure Visibility Wind Dir Wind Speed Gust Speed Precip Events Conditions
12:53 AM 53.1 °F - 45.0 °F 74% 29.54 in 10.0 mi ENE 11.5 mph - 0.00 in   Overcast
1:53 AM 52.0 °F - 45.0 °F 77% 29.49 in 8.0 mi NE 10.4 mph - N/A   Overcast
2:42 AM 48.9 °F - 46.9 °F 93% 29.50 in 2.0 mi Calm Calm - 0.14 in Rain Rain
2:49 AM 48.2 °F - 46.4 °F 93% 29.48 in 1.8 mi East 5.8 mph - 0.20 in Rain Heavy Rain
2:53 AM 48.9 °F - 46.9 °F 93% 29.47 in 2.0 mi East 5.8 mph - 0.21 in Rain Rain
3:27 AM 48.9 °F - 46.9 °F 93% 29.43 in 2.5 mi East 6.9 mph - 0.07 in Rain Light Rain
3:35 AM 48.9 °F - 46.9 °F 93% 29.43 in 3.0 mi East 8.1 mph - 0.08 in Rain Light Rain
3:53 AM 48.9 °F - 46.9 °F 93% 29.40 in 3.0 mi ENE 9.2 mph - 0.08 in Rain Light Rain
4:21 AM 48.0 °F - 46.0 °F 93% 29.41 in 2.0 mi ENE 6.9 mph - 0.08 in Rain Heavy Rain
4:28 AM 48.0 °F - 46.0 °F 93% 29.40 in 1.5 mi ENE 9.2 mph - 0.12 in Rain Heavy Rain
4:53 AM 46.9 °F - 46.0 °F 97% 29.36 in 2.0 mi East 10.4 mph - 0.21 in Rain Rain
5:26 AM 46.9 °F - 46.0 °F 97% 29.35 in 1.5 mi ENE 8.1 mph - 0.13 in Rain Heavy Rain
5:38 AM 46.9 °F - 46.0 °F 97% 29.34 in 1.8 mi East 10.4 mph - 0.18 in Rain Heavy Rain
5:53 AM 46.9 °F - 46.0 °F 97% 29.33 in 1.8 mi East 9.2 mph - 0.23 in Rain Rain
6:06 AM 46.9 °F - 46.0 °F 97% 29.34 in 2.0 mi East 5.8 mph - 0.01 in Rain Light Rain
6:53 AM 46.9 °F - 46.0 °F 97% 29.29 in 2.5 mi East 9.2 mph - 0.02 in Rain Light Rain
7:53 AM 46.9 °F - 46.0 °F 97% 29.24 in 1.2 mi East 11.5 mph - 0.10 in Rain Heavy Rain
8:05 AM 46.9 °F - 46.0 °F 97% 29.22 in 2.0 mi East 11.5 mph - 0.02 in Rain Light Rain
8:13 AM 46.9 °F - 46.9 °F 100% 29.25 in 1.8 mi WNW 4.6 mph - 0.05 in Rain Heavy Rain
8:20 AM 46.9 °F - 46.0 °F 97% 29.28 in 2.0 mi NNW 12.7 mph 20.7 mph 0.06 in Rain Light Rain
8:30 AM 46.9 °F - 46.0 °F 97% 29.28 in 1.8 mi NNW 16.1 mph 25.3 mph 0.07 in Rain Light Rain
8:49 AM 42.8 °F 34.0 °F 41.0 °F 93% 29.29 in 2.0 mi North 20.7 mph 28.8 mph 0.12 in Rain Rain
8:53 AM 42.1 °F 33.1 °F 39.9 °F 92% 29.30 in 2.0 mi North 20.7 mph 27.6 mph 0.13 in Rain Rain
9:06 AM 39.0 °F 29.0 °F 37.9 °F 96% 29.32 in 5.0 mi North 20.7 mph 31.1 mph 0.01 in Rain Light Rain
9:50 AM 33.8 °F 21.3 °F 30.2 °F 87% 29.33 in 10.0 mi North 24.2 mph 39.1 mph 0.01 in   Overcast
9:53 AM 34.0 °F 22.1 °F 30.9 °F 89% 29.34 in 10.0 mi North 21.9 mph 39.1 mph 0.01 in   Overcast
11:53 AM 33.1 °F 22.2 °F 30.9 °F 92% 29.45 in 1.5 mi NNW 17.3 mph 23.0 mph N/A Snow Light Snow
12:15 PM 33.1 °F 20.3 °F 30.9 °F 92% 29.47 in 1.2 mi NNW 24.2 mph 31.1 mph 0.01 in Snow Light Snow
12:23 PM 32.0 °F 18.6 °F 30.9 °F 96% 29.48 in 0.5 mi NNW 25.3 mph 36.8 mph 0.01 in Fog , Snow Light Snow
12:47 PM 32.0 °F 19.5 °F 30.2 °F 93% 29.48 in 1.0 mi NNW 21.9 mph 29.9 mph 0.01 in Snow Light Snow
12:53 PM 32.0 °F 20.1 °F 30.0 °F 92% 29.50 in 1.8 mi NNW 19.6 mph 32.2 mph 0.01 in Snow Light Snow
12:55 PM 32.0 °F 20.1 °F 30.0 °F 92% 29.50 in 2.5 mi NNW 19.6 mph 32.2 mph 0.00 in Snow Light Snow
1:03 PM 33.1 °F 21.5 °F 30.0 °F 89% 29.51 in 8.0 mi NNW 19.6 mph 31.1 mph 0.00 in Snow Light Snow
1:53 PM 33.1 °F 20.6 °F 30.0 °F 89% 29.57 in 6.0 mi NNW 23.0 mph 36.8 mph 0.00 in Snow Light Snow
2:04 PM 33.1 °F 20.3 °F 28.9 °F 85% 29.58 in 4.0 mi NNW 24.2 mph 35.7 mph 0.00 in Snow Light Snow
2:53 PM 33.1 °F 19.8 °F 28.0 °F 82% 29.63 in 10.0 mi NNW 26.5 mph 35.7 mph 0.00 in   Overcast
3:46 PM 32.0 °F 18.9 °F 27.0 °F 82% 29.68 in 1.8 mi NW 24.2 mph 31.1 mph 0.00 in Snow Light Snow
3:53 PM 32.0 °F 19.2 °F 27.0 °F 82% 29.69 in 1.5 mi NNW 23.0 mph 35.7 mph 0.00 in Snow Light Snow
4:02 PM 32.0 °F 18.4 °F 27.0 °F 82% 29.70 in 2.0 mi NNW 26.5 mph 34.5 mph 0.00 in Snow Light Snow
4:33 PM 30.9 °F 17.5 °F 25.0 °F 79% 29.74 in 3.0 mi North 24.2 mph 34.5 mph 0.00 in Snow Light Snow
4:41 PM 30.9 °F 17.2 °F 26.1 °F 82% 29.74 in 1.8 mi NNW 25.3 mph 35.7 mph 0.00 in Snow Light Snow
4:53 PM 30.9 °F 18.1 °F 26.1 °F 82% 29.76 in 1.2 mi NNW 21.9 mph 31.1 mph 0.00 in Snow Light Snow
5:02 PM 30.9 °F 17.2 °F 24.1 °F 76% 29.77 in 3.0 mi NNW 25.3 mph 33.4 mph 0.00 in Snow Light Snow
5:17 PM 30.0 °F 16.0 °F 24.1 °F 79% 29.78 in 5.0 mi NNW 25.3 mph 35.7 mph 0.00 in Snow Light Snow
5:53 PM 30.9 °F 18.7 °F 23.0 °F 72% 29.80 in 10.0 mi North 19.6 mph 29.9 mph 0.00 in   Overcast
6:53 PM 30.0 °F 19.5 °F 25.0 °F 82% 29.84 in 5.0 mi North 13.8 mph - 0.00 in Snow Light Snow
7:01 PM 30.0 °F 20.0 °F 25.0 °F 82% 29.84 in 1.8 mi NNW 12.7 mph - 0.00 in Snow Light Snow
7:23 PM 30.0 °F 21.7 °F 26.1 °F 85% 29.85 in 3.0 mi North 9.2 mph - 0.00 in Snow Light Snow
7:51 PM 28.4 °F 18.5 °F 24.8 °F 86% 29.87 in 5.0 mi North 11.5 mph - 0.00 in   Overcast
7:53 PM 28.0 °F 18.6 °F 25.0 °F 88% 29.87 in 2.5 mi North 10.4 mph - 0.00 in Snow Light Snow
8:00 PM 28.0 °F 20.8 °F 25.0 °F 88% 29.87 in 1.2 mi North 6.9 mph - 0.00 in Snow Light Snow
8:04 PM 28.0 °F 19.3 °F 25.0 °F 88% 29.87 in 2.0 mi NNE 9.2 mph - 0.00 in Snow Light Snow
8:12 PM 28.0 °F 20.8 °F 25.0 °F 88% 29.88 in 7.0 mi North 6.9 mph - 0.00 in   Overcast
8:21 PM 28.0 °F 20.0 °F 25.0 °F 88% 29.89 in 2.5 mi North 8.1 mph - 0.00 in Snow Light Snow
8:24 PM 28.0 °F 20.8 °F 25.0 °F 88% 29.89 in 1.8 mi North 6.9 mph - 0.00 in Snow Light Snow
8:42 PM 28.0 °F 20.0 °F 25.0 °F 88% 29.90 in 3.0 mi NNW 8.1 mph - 0.00 in Snow Light Snow
8:53 PM 28.0 °F 16.1 °F 24.1 °F 85% 29.91 in 4.0 mi NW 16.1 mph 24.2 mph 0.00 in Snow Light Snow
9:53 PM 26.1 °F 13.6 °F 18.0 °F 71% 29.94 in 10.0 mi NW 16.1 mph 24.2 mph 0.00 in   Overcast
10:16 PM 25.0 °F 13.1 °F 18.0 °F 75% 29.96 in 2.5 mi NW 13.8 mph - 0.00 in Snow Light Snow
10:44 PM 24.1 °F 11.5 °F 18.0 °F 77% 29.97 in 1.8 mi NNW 15.0 mph - 0.00 in Snow Light Snow
10:51 PM 23.0 °F 8.7 °F 17.6 °F 80% 29.97 in 2.5 mi NNW 18.4 mph 23.0 mph 0.00 in Snow Light Snow
10:53 PM 23.0 °F 9.2 °F 17.1 °F 78% 29.97 in 2.5 mi NW 17.3 mph 23.0 mph 0.00 in Snow Light Snow
11:05 PM 23.0 °F 10.1 °F 17.1 °F 78% 29.97 in 3.0 mi NW 15.0 mph - 0.00 in Snow Light Snow
11:16 PM 21.9 °F 7.3 °F 16.0 °F 78% 29.98 in 3.0 mi NW 18.4 mph 26.5 mph 0.00 in Snow Light Snow
11:53 PM 21.9 °F 9.2 °F 15.1 °F 75% 30.01 in 5.0 mi NW 13.8 mph - 0.00 in Snow Light Snow